Location: Antioch Baptist Church
(32.6696°N, 85.7327°W)
Time: 00:57:00
(UTC+00:00)

SJ-6B - Pass Details

Date: 14 July 2020
Orbit: 509 x 582 km, 97.6° (Epoch: 12 August)

Event Time Altitude Azimuth Distance (km) Brightness Sun altitude
Exits shadow 01:35:18 - 165° (SSE) 2,390 5.6 -8.7°
Reaches altitude 10° 01:36:36 10° 165° (SSE) 1,845 5.1 -8.9°
Maximum altitude 01:40:36 83° 79° (E) 578 2.8 -9.7°
Drops below altitude 10° 01:44:43 10° 350° (N) 1,890 6.2 -10.4°
Sets 01:46:53 0° 350° (N) 2,798 7.2 -10.7°
